Wind_Speed
21 21 21 21 20 20 19 19 18 18 18 18 19 20 20 20 20 20 21 20 19 18 17 16 16 15 15 15 15 15 16 16 17 17 18 18 18 19 19 18 18 17 16 15 14 14 14 13 11 10 11 11 10 9 9 10 11 11 11 11 11 11 12 12 13 14 15 16 17
20 20 20 20 20 19 19 19 18 18 18 18 18 18 18 18 18 18 18 18 18 17 17 16 16 15 15 15 15 15 15 15 16 16 17 17 18 18 18 17 17 16 15 14 15 15 15 14 12 11 10 9 8 8 8 9 10 11 11 11 12 12 13 14 15 16 17 17 18
19 19 19 19 19 19 19 18 18 18 17 16 16 16 16 15 16 16 16 16 16 16 16 15 15 15 15 15 15 15 15 15 15 16 16 16 16 17 16 16 16 15 15 15 16 16 15 14 13 12 10 8 8 8 9 11 12 12 13 13 13 14 15 16 16 17 17 18 18
19 19 19 19 19 18 18 18 17 17 16 15 14 14 14 14 14 14 14 15 15 15 15 15 15 15 15 15 15 15 16 16 16 16 16 16 16 16 16 16 15 14 15 15 16 16 15 13 13 12 10 10 10 11 12 13 13 14 14 15 15 16 16 17 17 18 18 18 18
18 18 19 18 18 18 17 17 16 15 14 14 13 13 13 13 13 13 13 13 14 14 14 14 14 15 15 15 15 15 16 16 16 16 16 16 15 15 15 15 14 13 13 14 13 13 13 13 12 12 12 13 13 13 13 14 14 14 15 16 17 17 17 18 18 19 19 19 19
17 17 17 17 17 17 16 16 15 14 13 13 12 12 12 12 12 12 12 12 12 12 13 13 13 13 13 13 14 14 14 14 14 14 14 14 13 13 13 12 12 12 12 11 11 10 10 10 11 12 13 14 14 14 14 14 15 16 17 18 19 19 19 19 20 20 20 20 20
16 16 16 16 16 15 15 14 13 13 12 12 12 12 12 11 11 11 11 11 11 11 11 11 11 11 11 11 11 11 11 11 11 11 11 11 11 10 9 10 10 11 11 11 11 11 10 10 12 14 14 15 15 14 14 15 17 19 20 21 21 21 20 20 20 20 20 20 20
15 15 15 15 14 14 14 13 12 12 11 11 11 11 11 10 10 10 10 10 10 9 9 9 9 9 9 8 8 9 9 9 9 9 9 9 9 9 10 10 10 11 11 11 11 11 12 13 15 16 16 16 16 16 17 18 20 21 21 22 22 21 21 21 21 21 20 20 20
14 14 14 14 14 13 13 12 12 11 11 10 10 10 10 10 10 10 10 9 9 9 9 9 9 8 8 8 8 7 7 7 7 6 6 6 7 9 9 10 10 11 12 13 14 14 15 15 16 16 17 18 18 19 20 21 21 21 22 22 21 21 21 21 20 20 19 19 19
14 14 14 13 13 13 13 12 12 12 11 11 11 10 10 10 10 10 10 10 10 9 9 9 9 9 8 8 8 8 8 8 8 8 8 9 10 11 12 13 13 14 15 16 17 17 17 17 17 18 18 19 20 21 21 22 22 22 22 21 21 20 20 19 19 19 19 18 19
15 14 14 13 13 13 13 13 13 12 12 12 12 12 11 11 11 11 11 10 10 10 10 10 9 9 9 9 9 9 9 9 10 10 11 11 12 13 13 14 15 16 16 17 18 19 19 19 19 20 21 22 22 22 22 22 22 22 21 21 20 19 18 18 18 19 19 19 20
15 15 15 14 14 14 14 13 13 13 13 13 13 13 13 12 12 12 12 11 11 11 11 11 10 10 10 10 10 11 11 11 11 12 12 13 13 14 15 15 16 17 17 18 19 19 20 20 21 22 22 23 23 23 23 23 22 22 21 20 19 18 17 17 18 19 19 20 20
16 16 16 15 15 15 14 14 14 14 14 14 14 14 14 14 13 13 13 12 12 12 12 12 12 12 12 12 12 12 13 13 13 13 14 14 15 15 16 16 17 17 18 19 19 20 21 21 22 22 22 23 23 23 22 22 21 20 19 18 18 17 17 17 18 19 19 20 20
17 17 16 16 16 15 15 15 15 15 15 15 15 15 15 15 15 14 14 13 13 13 13 13 13 13 13 13 14 14 14 14 14 15 15 15 16 16 17 17 18 18 19 19 20 20 21 21 21 21 20 20 20 20 20 19 18 17 16 16 16 16 17 18 18 19 19 19 19
17 17 17 17 16 16 16 16 16 15 15 15 16 16 16 16 16 16 15 15 15 15 15 15 15 15 15 15 15 15 15 16 16 16 16 16 17 17 18 18 18 19 19 20 20 20 20 19 18 18 17 17 17 16 16 15 14 14 14 15 15 16 17 17 18 18 18 18 18
18 18 17 17 17 17 17 16 16 16 16 16 17 17 17 17 17 17 17 16 17 17 17 17 17 17 17 17 17 17 17 17 16 16 17 17 17 17 18 18 18 19 19 19 19 18 18 17 16 16 15 14 13 13 12 12 12 12 13 14 14 15 15 16 17 17 17 17 17
18 18 18 18 18 18 17 17 17 17 17 18 18 18 18 18 18 18 18 18 18 18 18 18 18 18 18 18 18 18 17 17 16 16 16 16 16 17 17 17 17 17 16 16 15 15 14 14 13 13 12 11 10 10 10 10 11 11 11 12 12 13 14 15 15 16 16 16 16
18 19 19 19 19 19 19 19 19 19 19 19 19 19 19 19 19 19 19 19 19 19 19 20 20 19 19 19 19 18 17 16 16 16 15 15 15 14 14 14 14 13 13 12 12 11 11 11 10 10 9 9 9 9 9 9 9 10 10 10 11 12 12 13 13 13 13 13 12
19 20 20 20 20 20 20 20 20 21 21 21 21 21 21 21 20 20 20 20 20 20 20 20 20 20 20 20 19 18 17 16 15 14 13 13 12 12 11 11 11 11 11 10 10 10 10 9 9 8 8 8 8 8 8 8 8 8 9 9 10 10 10 10 10 10 10 9 8
20 20 20 21 21 21 21 22 22 22 22 22 22 22 22 22 21 21 21 21 21 21 21 21 20 20 20 19 18 16 15 14 13 11 11 10 10 9 9 9 9 9 9 9 9 8 8 7 7 7 7 6 7 7 7 7 7 8 8 8 8 8 8 8 8 8 8 7 7
20 20 21 21 21 22 22 22 22 23 23 23 23 22 22 22 22 21 21 21 21 21 20 20 20 19 18 17 16 14 13 11 10 9 8 8 8 7 8 8 7 7 7 7 6 6 6 6 6 6 6 6 6 6 7 7 7 7 7 8 8 7 7 7 7 7 6 6 6
20 20 21 21 21 22 22 22 22 22 22 22 23 22 22 22 21 21 21 21 20 20 19 19 18 17 16 15 13 11 9 8 7 7 6 6 6 6 6 6 6 6 5 5 5 5 5 5 5 5 6 6 6 6 6 6 7 7 7 7 7 6 6 5 5 5 5 5 4
19 19 20 20 20 21 21 21 21 21 21 22 22 21 21 21 21 20 20 20 19 18 18 17 16 15 13 11 9 8 7 6 5 5 5 5 5 5 5 5 5 5 5 5 5 5 5 5 6 6 6 6 6 6 6 6 6 6 6 6 5 5 4 4 4 3 3 3 2
17 18 18 18 19 19 19 20 20 20 20 20 19 19 19 19 19 19 18 18 17 16 15 14 12 10 8 7 7 7 6 6 5 5 5 5 5 5 5 5 5 5 5 5 5 5 6 6 6 6 6 5 5 5 5 5 5 5 4 4 3 3 2 2 2 2 1 1 1
15 16 16 16 17 17 17 17 17 17 17 17 17 17 17 17 17 16 16 15 14 13 11 9 8 7 7 6 6 6 6 6 5 5 5 5 5 5 5 5 5 5 5 5 5 5 5 5 5 5 5 5 4 4 4 3 3 2 2 2 2 2 2 2 1 1 1 1 0
13 13 14 14 14 14 14 14 14 14 14 15 14 14 14 14 13 13 12 11 10 9 8 7 6 6 6 6 6 6 5 5 5 5 5 5 5 5 5 5 5 5 5 5 4 4 4 5 4 4 4 3 3 2 1 1 1 1 2 2 2 2 2 2 2 1 1 1 1
11 11 11 11 11 10 10 11 12 12 12 12 11 10 10 10 9 9 8 8 7 7 6 6 6 6 6 5 5 5 5 4 4 4 4 4 4 5 4 4 4 4 3 3 3 3 3 3 3 2 2 1 1 0 1 2 2 3 3 3 3 2 2 2 1 1 1 1 0
8 8 8 8 8 8 9 10 10 9 8 7 7 7 6 6 6 6 6 6 6 6 6 6 6 5 5 4 4 4 3 3 2 2 3 3 3 3 3 3 2 2 2 2 1 1 1 1 1 1 1 2 2 3 3 3 3 3 3 3 3 2 2 2 1 1 1 1 2
6 6 6 6 6 6 7 7 6 6 6 5 5 5 5 5 6 6 6 6 6 6 6 5 5 4 4 3 3 2 2 1 1 2 2 2 2 2 2 2 2 1 1 1 1 2 2 2 3 3 4 4 4 4 4 4 4 3 3 3 3 3 3 3 3 3 3 3 4
6 5 5 4 5 5 5 5 6 6 6 5 5 5 5 5 5 5 6 6 5 5 5 4 4 3 3 2 2 1 0 0 0 1 1 1 2 2 2 2 2 2 3 3 4 4 4 5 5 5 5 5 5 5 4 4 4 4 4 4 4 4 4 4 4 4 5 5 6
6 5 5 5 5 5 5 6 7 7 6 5 5 5 5 5 5 5 5 5 5 4 4 4 3 3 3 2 2 1 1 1 1 2 2 3 3 4 4 4 4 4 5 5 5 6 6 6 6 5 5 5 5 4 4 4 4 4 4 4 4 5 5 5 5 6 6 6 6
6 5 5 5 5 5 6 6 7 6 5 5 5 5 5 5 5 4 4 4 4 4 4 4 4 4 3 3 3 3 2 3 3 4 4 5 5 5 5 5 5 6 6 6 6 6 6 6 5 5 4 4 4 3 3 3 3 4 4 4 4 5 5 5 5 6 6 6 6
5 5 5 5 5 5 5 6 6 5 5 4 4 5 5 5 4 4 4 4 4 5 5 5 5 5 4 4 4 4 4 5 5 6 6 6 7 7 7 6 6 6 6 6 6 6 5 5 4 4 3 3 2 2 3 3 3 3 4 4 4 5 5 5 6 6 6 7 7
5 6 6 5 5 5 5 5 5 5 4 4 4 5 5 5 5 5 5 5 5 6 6 6 6 5 5 5 5 6 6 6 7 7 8 8 7 7 7 6 6 6 6 6 5 5 4 3 3 2 2 2 2 2 2 3 3 4 4 4 5 5 6 6 6 7 7 8 8
6 7 6 6 5 5 5 5 5 4 4 4 5 5 5 5 6 6 6 6 6 7 6 6 6 6 6 6 7 7 7 8 8 8 8 8 7 7 6 6 6 6 5 5 4 3 2 2 1 1 1 2 2 2 3 4 4 5 5 6 6 7 7 7 7 8 8 8 8
8 8 7 6 5 5 5 5 5 5 5 5 6 6 6 6 7 7 7 7 7 7 7 7 7 7 7 8 8 8 8 8 8 8 7 7 7 6 6 5 5 4 4 3 2 2 1 1 1 1 2 2 3 4 4 5 6 6 7 7 7 8 8 8 8 8 8 8 8
9 9 8 7 6 5 5 5 5 5 5 6 6 7 7 8 8 8 8 9 8 8 8 8 8 9 9 9 9 9 8 8 7 7 6 6 6 6 5 5 4 4 3 2 2 1 1 1 2 2 3 4 5 5 6 6 7 7 7 7 8 8 8 8 8 8 8 8 8
10 10 9 7 6 5 5 6 6 6 6 6 7 8 8 8 9 9 10 10 10 9 9 9 9 9 9 9 9 8 8 7 6 6 5 5 5 5 5 4 4 3 2 2 2 2 2 3 4 4 5 5 6 6 7 7 7 7 7 7 7 8 8 8 8 8 8 8 8
10 10 9 8 7 6 6 6 6 6 7 7 8 8 9 9 10 10 10 11 10 10 10 9 9 9 9 9 8 7 7 6 6 6 5 5 5 5 4 4 3 3 2 2 2 3 4 4 5 5 5 6 6 6 6 6 6 6 6 7 7 7 7 7 8 8 8 8 8
9 9 9 8 7 7 7 6 7 7 8 8 9 9 10 10 10 11 11 11 11 10 10 10 9 9 9 8 8 7 7 6 6 5 5 5 5 4 4 3 3 2 3 3 4 4 4 5 5 5 5 5 5 5 5 5 5 6 6 6 6 7 7 7 7 7 7 8 8
9 9 8 8 8 8 8 8 8 8 9 9 10 10 10 10 11 11 11 11 11 10 10 9 9 8 8 8 7 7 7 6 6 5 5 5 4 4 4 3 3 3 3 4 4 4 4 4 5 4 4 5 5 5 5 5 5 6 6 6 6 6 6 7 7 7 7 7 8
Wind_Direction
283 284 285 287 288 289 289 289 288 286 284 282 280 278 276 274 272 270 268 266 265 265 266 266 266 266 265 264 263 262 261 260 258 257 257 257 257 258 260 261 263 263 262 260 256 254 254 252 247 238 233 237 242 240 236 233 234 237 243 251 257 262 266 268 268 269 271 273 275
278 280 282 284 286 288 289 289 288 287 285 283 281 279 278 276 273 270 267 265 264 264 264 265 264 264 263 262 262 262 261 261 260 259 259 259 259 259 259 259 260 259 257 254 251 252 255 258 257 252 250 251 248 238 231 233 240 247 252 257 260 263 265 266 268 269 271 272 273
273 275 277 280 282 284 286 286 287 287 285 284 281 279 277 274 272 269 267 265 264 262 261 261 260 260 261 261 262 262 263 264 264 263 262 261 260 259 259 259 258 256 255 255 257 260 263 266 270 271 269 258 246 240 244 252 258 259 260 262 265 268 269 269 270 270 271 271 271
270 271 273 276 278 280 281 283 284 284 283 281 280 277 274 271 269 267 266 265 262 260 258 257 257 258 259 261 262 264 265 267 267 266 265 264 262 261 261 261 259 258 260 263 267 269 271 274 277 278 270 255 247 248 255 262 266 266 265 267 269 271 272 272 272 270 269 268 268
269 270 272 274 275 276 277 278 279 279 278 277 275 272 269 267 265 264 263 262 261 260 259 258 259 260 262 263 265 267 267 268 267 266 266 265 265 265 266 266 266 265 265 265 264 264 266 270 272 270 264 256 254 256 262 266 266 266 267 270 272 273 274 274 273 272 269 267 266
269 270 272 273 273 273 273 273 273 273 273 272 270 267 264 262 261 259 259 259 260 261 262 263 264 265 267 268 268 268 268 267 267 266 267 267 267 266 265 264 265 262 254 244 238 233 236 245 259 261 256 250 250 255 261 266 268 270 274 276 277 277 275 273 271 271 269 266 264
268 269 270 270 269 268 267 266 266 267 267 267 265 262 260 259 257 256 256 258 261 263 265 266 268 269 270 271 272 271 271 271 271 271 271 270 265 257 242 229 232 233 228 219 217 217 225 242 258 259 253 248 249 253 260 269 274 278 280 281 280 277 274 271 269 269 267 265 262
265 266 266 266 265 263 261 260 260 259 260 260 260 259 258 256 254 253 254 256 258 259 262 264 266 266 267 267 268 269 270 272 270 267 262 256 248 238 229 224 223 225 227 231 236 241 249 258 264 264 261 260 261 265 270 275 278 279 280 279 277 274 271 269 269 268 267 265 263
262 262 262 262 261 259 257 255 255 254 255 256 257 257 257 255 253 252 252 252 253 255 257 258 258 259 259 257 256 256 257 259 260 257 252 248 249 250 249 250 252 256 261 266 269 270 270 271 272 272 272 271 271 272 275 276 276 277 277 276 274 271 270 269 269 268 266 265 264
259 260 259 259 258 256 255 253 253 253 254 255 257 257 258 257 256 254 254 253 254 255 255 254 255 255 254 252 250 250 251 254 259 265 268 269 270 270 271 272 274 275 276 276 277 278 278 278 277 276 274 273 272 272 273 274 274 275 276 276 274 271 270 269 269 268 267 267 268
258 258 258 258 258 256 255 254 254 254 255 257 258 259 260 261 261 260 259 259 259 259 258 259 259 259 258 258 258 258 259 260 262 265 268 270 270 271 272 272 272 273 273 274 275 276 276 276 275 274 273 272 272 273 273 274 274 275 277 276 275 273 271 270 270 271 271 273 275
256 256 257 257 257 257 257 257 257 257 258 260 261 262 263 264 265 265 265 266 266 266 266 267 268 268 269 269 270 270 270 270 270 271 272 272 272 272 272 271 271 271 271 272 273 273 273 273 273 273 273 274 274 275 275 276 276 277 277 276 275 274 272 272 273 275 277 279 281
255 255 256 256 257 257 257 258 259 260 261 263 263 264 265 266 266 267 268 269 270 271 271 272 273 274 274 275 275 276 276 276 276 276 276 275 275 274 273 272 272 272 272 272 272 272 271 271 272 273 274 275 276 276 276 276 277 277 278 278 278 277 277 277 278 280 282 283 284
254 254 255 256 257 257 258 258 259 260 262 263 265 265 266 266 266 266 267 268 270 271 272 273 273 274 275 275 276 276 277 277 277 278 278 277 276 275 275 274 273 273 272 271 271 270 270 271 272 274 275 275 276 276 277 278 278 279 280 281 282 281 281 281 281 282 283 283 282
253 253 254 255 256 257 257 258 258 259 261 262 263 264 265 265 265 266 266 267 268 269 270 271 273 273 274 275 275 276 276 277 278 278 278 277 276 276 275 274 274 273 272 272 272 272 273 274 275 275 275 275 276 277 279 281 282 283 284 283 283 283 282 282 282 282 281 280 279
252 252 253 254 255 256 256 257 257 258 259 261 262 262 263 264 264 265 265 266 267 268 269 270 271 273 274 274 274 275 276 277 278 278 277 276 276 275 274 274 274 274 274 275 276 277 278 278 278 277 276 276 277 279 281 282 281 281 281 281 281 281 281 281 281 280 279 277 277
250 251 252 252 253 254 255 256 256 257 258 259 260 261 261 262 263 263 264 264 266 266 267 268 270 271 272 273 273 274 275 276 277 276 275 274 273 273 273 273 274 276 277 279 280 281 281 280 278 276 275 274 274 273 273 273 273 275 276 278 279 280 281 281 281 280 278 277 278
249 250 250 251 252 253 254 255 255 256 257 258 259 260 261 261 262 262 263 263 264 265 266 267 269 270 271 272 273 274 275 275 275 274 273 271 271 271 272 274 276 278 279 280 279 277 274 272 270 267 265 262 261 261 262 265 269 273 277 280 283 284 285 284 283 281 280 280 283
249 249 249 250 251 252 253 254 255 256 257 258 259 261 261 262 262 262 263 263 264 265 266 268 269 270 271 273 274 275 275 273 272 269 268 267 268 270 273 276 278 278 277 274 270 265 262 258 256 254 252 252 254 258 263 269 275 281 285 288 290 290 290 288 286 286 286 288 292
250 250 251 251 251 252 253 254 256 256 258 258 260 261 262 262 263 264 264 265 265 266 267 269 270 271 272 273 274 273 271 268 264 261 260 263 267 271 274 276 276 273 270 265 260 256 253 251 251 251 253 258 265 272 279 285 290 292 294 294 294 294 293 291 292 294 296 297 297
251 251 252 252 252 253 254 255 256 257 258 259 260 261 262 263 265 265 266 267 268 268 269 270 271 272 272 272 270 266 262 256 252 251 254 261 267 271 273 273 270 266 261 258 254 254 255 259 263 268 274 280 287 291 295 298 299 298 296 294 293 293 293 294 297 300 301 299 295
252 252 252 253 253 254 254 255 256 257 259 260 261 263 264 265 266 266 267 267 268 269 269 270 270 271 270 267 260 251 242 237 236 242 251 260 265 268 268 266 263 261 260 261 265 270 276 281 286 291 295 298 301 302 301 301 299 296 293 291 291 292 294 297 300 302 301 299 296
254 254 254 254 254 254 255 256 257 259 260 261 262 263 264 265 266 266 267 267 268 268 268 268 267 265 261 253 240 226 218 217 224 236 247 255 259 261 262 263 267 272 276 281 286 292 298 301 303 303 304 305 306 305 302 299 295 292 290 290 293 296 300 304 306 307 304 301 297
255 255 255 255 255 256 257 258 259 260 260 261 261 262 263 263 264 265 265 266 265 265 264 262 258 251 239 225 213 204 203 208 219 231 242 250 257 263 270 277 285 291 295 298 302 306 308 309 310 309 308 306 306 303 300 295 293 291 293 297 304 313 319 323 325 325 324 317 305
254 255 255 255 256 256 257 258 258 258 258 258 259 259 260 261 261 261 261 260 259 256 251 244 234 223 211 202 197 197 203 212 223 234 245 256 267 279 290 298 304 306 307 309 310 312 312 312 312 312 309 305 301 297 295 294 297 304 315 329 342 354 4 18 23 30 35 39 77
253 254 254 254 254 254 253 253 252 253 253 254 255 255 254 254 254 252 250 247 242 234 224 213 205 198 194 191 194 200 209 219 230 242 256 273 288 300 309 314 317 315 314 315 317 319 320 318 315 311 305 298 292 291 299 326 353 13 23 28 29 34 42 56 66 79 82 85 91
252 251 250 249 247 245 245 245 246 246 247 246 244 242 240 239 236 231 225 218 209 201 194 189 186 185 186 189 196 207 218 228 241 257 276 293 305 313 318 323 323 322 323 326 330 331 328 323 318 307 299 291 298 47 62 56 53 49 48 46 45 44 48 58 68 86 103 112 107
248 245 243 240 237 235 236 238 237 234 230 223 215 212 210 207 201 196 191 186 182 179 178 178 178 179 183 190 201 213 226 241 260 283 301 310 316 320 327 334 338 341 343 352 354 354 349 1 28 55 69 74 73 71 64 59 54 47 45 40 35 30 26 19 11 354 321 289 288
241 237 233 229 225 225 225 223 213 201 189 179 176 176 175 174 172 171 170 169 168 169 170 172 174 177 184 192 202 214 231 258 293 315 324 330 336 346 0 11 25 39 56 76 97 108 105 100 90 82 75 69 65 61 56 48 40 33 25 17 9 0 351 342 333 323 312 305 302
228 223 217 210 205 203 199 189 177 166 159 156 155 154 153 154 155 156 157 159 161 164 166 167 169 172 175 177 178 176 192 291 1 21 37 50 62 63 64 67 80 95 108 116 116 110 99 90 80 72 64 59 54 48 41 32 22 11 1 351 343 336 329 323 317 312 310 309 309
220 215 206 196 189 186 182 175 165 156 149 146 144 142 142 142 143 147 152 157 162 164 163 162 162 158 153 146 139 128 121 117 112 109 103 98 94 90 90 96 105 114 117 116 107 96 85 76 69 62 55 49 42 35 25 14 3 351 342 335 329 324 318 314 311 309 309 311 313
215 207 198 188 185 185 182 175 164 153 144 140 139 139 140 140 143 148 156 162 164 164 160 155 149 144 138 134 130 127 125 124 121 117 111 106 100 100 102 107 112 114 110 101 90 80 72 64 58 52 46 38 29 18 6 354 343 335 329 324 320 318 316 313 312 312 314 317 320
201 192 184 179 180 184 184 177 166 154 144 141 143 144 145 147 150 155 160 161 162 157 151 144 140 137 134 130 128 127 125 123 120 116 112 109 106 106 106 107 105 100 92 83 75 68 62 55 49 41 31 20 7 355 344 333 326 323 321 320 320 321 321 322 323 325 327 328 328
182 177 173 173 177 182 184 180 170 159 152 153 154 154 154 154 154 154 156 157 153 149 143 139 137 134 131 128 126 124 122 121 118 115 114 113 111 109 105 98 92 84 76 71 66 61 55 48 38 26 9 356 344 338 335 331 330 329 330 331 331 332 332 333 334 334 334 332 331
173 169 168 171 176 181 182 179 171 165 164 168 164 160 159 157 154 153 151 151 148 144 141 139 136 134 131 128 125 121 119 118 117 116 117 116 113 106 98 89 82 75 70 67 65 60 55 44 31 11 356 351 347 346 347 345 344 342 341 340 339 339 338 337 336 334 332 331 329
170 167 167 169 172 176 177 176 172 173 177 179 169 162 159 157 156 153 150 146 144 141 139 137 134 131 127 124 121 119 118 117 117 118 119 116 109 102 93 86 80 78 76 77 77 76 71 56 31 15 4 0 358 356 354 353 350 347 345 343 341 339 338 336 334 332 330 328 326
168 167 166 167 169 171 172 172 175 182 188 183 170 162 159 159 156 153 149 144 141 138 136 133 130 127 123 120 119 118 118 119 120 120 118 113 106 101 97 94 92 91 91 95 95 86 64 37 21 11 6 4 1 359 357 354 351 348 346 343 340 337 335 333 330 328 326 325 324
167 164 163 165 169 172 173 175 179 186 187 179 168 162 160 160 157 152 147 142 138 135 133 131 127 125 122 120 120 120 122 123 123 120 116 112 108 107 107 108 107 105 100 92 74 48 30 20 13 9 6 4 2 359 356 353 350 346 343 340 337 334 332 329 328 326 324 322 321
166 162 161 165 170 175 177 179 180 181 178 172 166 163 162 160 156 151 146 141 137 134 131 129 127 125 124 123 124 125 127 127 124 119 115 112 111 110 111 112 109 98 80 59 41 28 20 16 12 9 6 4 1 358 354 350 346 342 338 335 333 330 329 328 327 325 323 322 320
166 163 162 165 170 174 177 178 176 173 169 167 165 163 161 159 154 150 144 140 136 133 131 130 129 128 128 129 130 131 131 129 125 119 114 111 107 104 100 96 86 69 48 37 28 23 17 14 12 9 6 2 358 354 349 346 342 339 336 332 331 329 327 327 326 326 324 322 320
169 168 167 169 171 172 173 173 171 167 164 163 163 162 159 156 152 147 143 139 136 134 133 132 133 134 136 137 138 137 134 129 124 117 111 105 98 90 81 71 60 47 36 31 27 22 17 14 12 8 4 359 355 350 347 344 343 340 338 336 333 331 329 328 327 326 325 323 321
Height
1513 1513 1513 1513 1513 1513 1513 1513 1513 1513 1513 1513 1512 1512 1511 1511 1511 1511 1511 1512 1512 1512 1512 1512 1512 1512 1512 1513 1513 1513 1513 1513 1513 1514 1514 1515 1515 1515 1516 1516 1516 1516 1516 1516 1517 1517 1517 1517 1518 1518 1518 1518 1519 1519 1519 1520 1520 1520 1520 1520 1520 1520 1520 1520 1520 1520 1520 1519 1519
1513 1513 1513 1512 1512 1512 1512 1512 1512 1512 1512 1511 1511 1510 1510 1510 1510 1510 1510 1510 1511 1511 1511 1511 1511 1511 1512 1512 1512 1512 1512 1513 1513 1513 1513 1513 1514 1514 1514 1514 1514 1514 1515 1515 1516 1516 1516 1516 1516 1517 1517 1517 1517 1518 1518 1518 1518 1518 1518 1518 1518 1518 1518 1518 1518 1518 1518 1518 1517
1512 1512 1512 1512 1511 1511 1511 1511 1511 1511 1510 1510 1510 1510 1509 1509 1509 1509 1509 1509 1510 1510 1510 1510 1510 1511 1511 1511 1511 1511 1511 1512 1512 1512 1512 1513 1513 1513 1513 1513 1513 1513 1514 1514 1514 1514 1514 1514 1515 1515 1515 1516 1516 1516 1516 1517 1517 1517 1517 1517 1517 1517 1517 1517 1517 1517 1517 1516 1516
1511 1511 1511 1511 1511 1511 1510 1510 1510 1510 1510 1509 1509 1509 1509 1509 1508 1508 1509 1509 1509 1509 1509 1509 1510 1510 1510 1510 1510 1510 1511 1511 1511 1511 1511 1511 1512 1512 1512 1512 1512 1513 1513 1513 1513 1513 1513 1513 1513 1514 1514 1515 1515 1515 1515 1515 1515 1515 1515 1516 1516 1516 1516 1515 1515 1515 1515 1515 1514
1510 1510 1510 1510 1510 1510 1510 1510 1509 1509 1509 1509 1509 1508 1508 1508 1508 1508 1508 1508 1508 1508 1508 1509 1509 1509 1509 1509 1509 1510 1510 1510 1510 1510 1510 1510 1510 1510 1511 1511 1511 1511 1512 1512 1512 1512 1512 1511 1512 1513 1513 1514 1513 1513 1513 1513 1513 1514 1514 1514 1514 1514 1514 1514 1514 1513 1513 1513 1513
1509 1509 1509 1509 1509 1509 1509 1509 1509 1509 1508 1508 1508 1508 1508 1508 1508 1508 1508 1508 1508 1508 1508 1508 1508 1508 1508 1508 1508 1509 1509 1509 1509 1509 1509 1509 1509 1509 1509 1509 1510 1510 1511 1511 1511 1511 1511 1511 1511 1512 1512 1513 1513 1512 1512 1512 1512 1513 1513 1513 1513 1513 1513 1512 1512 1512 1511 1511 1511
1508 1508 1508 1508 1508 1508 1508 1508 1508 1508 1508 1508 1508 1508 1508 1508 1508 1508 1507 1508 1508 1508 1508 1508 1508 1508 1508 1508 1508 1508 1508 1508 1508 1508 1508 1509 1509 1509 1508 1508 1508 1509 1509 1509 1509 1510 1510 1510 1510 1511 1511 1512 1511 1511 1511 1511 1511 1511 1512 1512 1512 1511 1511 1511 1510 1510 1510 1509 1509
1507 1507 1507 1508 1508 1508 1508 1508 1508 1508 1508 1508 1508 1507 1507 1507 1507 1507 1507 1507 1507 1507 1507 1507 1507 1507 1507 1507 1507 1508 1508 1508 1508 1508 1508 1508 1508 1508 1508 1508 1507 1508 1508 1508 1509 1509 1509 1510 1510 1510 1510 1510 1510 1510 1510 1510 1510 1510 1510 1510 1510 1509 1509 1509 1509 1508 1508 1508 1508
1506 1506 1506 1507 1507 1507 1507 1507 1507 1507 1507 1507 1507 1507 1507 1507 1507 1507 1507 1507 1507 1507 1507 1507 1507 1507 1507 1507 1507 1507 1507 1507 1507 1507 1507 1507 1508 1508 1508 1508 1508 1508 1508 1508 1508 1508 1508 1508 1509 1509 1509 1509 1509 1509 1509 1509 1508 1508 1508 1508 1508 1508 1508 1508 1508 1508 1508 1508 1508
1505 1505 1505 1506 1506 1506 1506 1506 1506 1506 1506 1506 1506 1507 1507 1507 1506 1506 1506 1506 1506 1506 1506 1506 1506 1506 1506 1506 1506 1506 1506 1506 1506 1506 1506 1506 1507 1507 1507 1507 1507 1507 1507 1507 1507 1508 1508 1508 1508 1507 1507 1508 1508 1507 1507 1507 1507 1507 1507 1507 1507 1507 1507 1507 1507 1507 1507 1507 1507
1504 1504 1504 1504 1505 1505 1505 1505 1505 1505 1505 1505 1506 1506 1506 1506 1506 1506 1506 1506 1506 1506 1506 1506 1506 1505 1505 1505 1506 1506 1506 1506 1506 1506 1506 1506 1506 1506 1506 1506 1506 1506 1506 1506 1506 1506 1506 1506 1506 1506 1506 1506 1506 1506 1506 1506 1506 1506 1505 1505 1505 1505 1505 1505 1505 1505 1505 1505 1505
1503 1503 1503 1503 1503 1504 1504 1504 1504 1504 1504 1504 1504 1505 1505 1505 1505 1505 1505 1505 1505 1505 1505 1505 1505 1505 1505 1505 1505 1505 1505 1505 1505 1505 1505 1505 1505 1505 1505 1505 1505 1505 1505 1505 1505 1505 1505 1505 1505 1504 1504 1504 1504 1504 1504 1504 1504 1504 1504 1503 1503 1503 1503 1503 1503 1503 1503 1503 1503
1502 1502 1502 1502 1502 1503 1503 1503 1503 1503 1503 1503 1503 1503 1504 1504 1504 1504 1504 1504 1504 1504 1504 1504 1504 1504 1504 1504 1504 1504 1504 1504 1504 1504 1504 1503 1503 1503 1503 1503 1503 1503 1503 1503 1503 1503 1503 1503 1503 1503 1503 1503 1503 1503 1503 1503 1503 1502 1502 1502 1502 1502 1502 1502 1502 1502 1502 1501 1501
1500 1501 1501 1501 1501 1501 1502 1502 1502 1502 1502 1502 1502 1502 1503 1503 1503 1503 1503 1503 1503 1503 1503 1503 1503 1503 1503 1503 1503 1503 1503 1503 1503 1503 1502 1502 1502 1502 1502 1502 1502 1502 1502 1502 1502 1502 1502 1502 1502 1502 1501 1501 1501 1501 1501 1501 1501 1501 1501 1501 1501 1501 1501 1500 1500 1500 1500 1500 1499
1499 1499 1500 1500 1500 1500 1500 1500 1501 1501 1501 1501 1501 1501 1501 1501 1501 1501 1502 1502 1502 1502 1502 1502 1501 1501 1501 1501 1501 1501 1501 1501 1501 1501 1501 1501 1501 1501 1501 1500 1500 1500 1500 1500 1500 1500 1500 1500 1500 1500 1500 1500 1500 1499 1499 1499 1499 1499 1499 1499 1499 1499 1499 1499 1499 1498 1498 1498 1498
1498 1498 1498 1499 1499 1499 1499 1499 1499 1499 1499 1499 1499 1499 1499 1500 1500 1500 1500 1500 1500 1500 1500 1500 1500 1500 1500 1500 1500 1500 1500 1500 1500 1500 1500 1499 1499 1499 1499 1499 1499 1499 1499 1499 1498 1498 1499 1499 1499 1499 1498 1498 1498 1498 1498 1498 1498 1498 1498 1498 1498 1498 1498 1497 1497 1497 1497 1497 1497
1497 1497 1497 1498 1498 1498 1498 1498 1498 1498 1498 1498 1498 1498 1498 1498 1498 1498 1498 1499 1498 1498 1498 1498 1498 1498 1498 1498 1499 1499 1499 1499 1499 1498 1498 1498 1498 1498 1498 1498 1498 1498 1498 1498 1497 1497 1497 1497 1497 1497 1497 1497 1497 1497 1497 1497 1497 1497 1497 1497 1497 1497 1496 1496 1496 1496 1496 1495 1495
1496 1496 1496 1496 1496 1496 1496 1497 1497 1497 1497 1496 1496 1496 1497 1497 1497 1497 1497 1497 1497 1497 1497 1497 1497 1497 1497 1497 1497 1498 1498 1498 1498 1497 1497 1497 1497 1497 1497 1496 1496 1496 1496 1496 1496 1496 1496 1496 1496 1496 1496 1496 1496 1495 1495 1496 1496 1496 1496 1496 1495 1495 1495 1495 1495 1494 1494 1494 1494
1494 1494 1494 1495 1495 1495 1495 1495 1495 1495 1495 1495 1495 1495 1495 1495 1495 1495 1495 1495 1495 1496 1496 1496 1496 1496 1496 1496 1496 1496 1496 1496 1496 1496 1496 1496 1496 1495 1495 1495 1495 1495 1495 1495 1495 1495 1495 1494 1494 1494 1494 1494 1494 1494 1494 1494 1495 1495 1495 1495 1494 1494 1494 1494 1494 1493 1493 1493 1493
1493 1493 1493 1493 1493 1493 1493 1493 1493 1493 1493 1493 1493 1493 1493 1493 1493 1494 1494 1493 1494 1494 1494 1494 1494 1494 1494 1494 1495 1495 1495 1495 1495 1495 1495 1494 1494 1494 1494 1494 1494 1494 1494 1494 1494 1494 1493 1493 1494 1494 1494 1494 1494 1494 1494 1494 1494 1494 1494 1494 1494 1493 1493 1493 1493 1493 1492 1492 1492
1491 1492 1492 1492 1492 1492 1492 1492 1492 1492 1492 1492 1492 1492 1492 1492 1492 1492 1492 1492 1492 1493 1493 1493 1493 1493 1493 1493 1493 1493 1494 1494 1494 1494 1493 1493 1493 1493 1493 1493 1493 1493 1493 1493 1493 1493 1493 1493 1493 1493 1493 1493 1493 1493 1493 1493 1493 1493 1493 1493 1493 1493 1493 1492 1492 1492 1491 1491 1491
1490 1490 1490 1490 1491 1491 1491 1491 1491 1491 1491 1491 1490 1490 1491 1491 1491 1491 1491 1491 1491 1491 1491 1491 1491 1492 1492 1492 1492 1492 1493 1493 1493 1493 1493 1493 1493 1493 1493 1493 1493 1493 1493 1493 1493 1493 1493 1493 1493 1493 1493 1492 1492 1492 1492 1492 1492 1492 1493 1492 1492 1492 1492 1492 1491 1491 1491 1491 1491
1488 1489 1489 1489 1489 1489 1489 1489 1489 1489 1489 1489 1489 1489 1489 1489 1489 1489 1489 1489 1490 1490 1490 1490 1490 1490 1491 1491 1491 1491 1492 1492 1492 1492 1492 1492 1492 1492 1492 1492 1492 1492 1492 1492 1492 1492 1492 1492 1492 1492 1492 1492 1492 1492 1492 1492 1492 1492 1492 1492 1492 1492 1491 1491 1491 1491 1490 1490 1490
1487 1488 1488 1488 1488 1488 1488 1488 1488 1488 1488 1488 1488 1488 1488 1488 1488 1488 1488 1488 1488 1488 1489 1489 1489 1490 1490 1490 1490 1491 1491 1491 1491 1491 1491 1492 1492 1492 1492 1491 1491 1491 1491 1491 1491 1491 1491 1491 1491 1491 1491 1491 1491 1491 1491 1491 1492 1492 1491 1491 1491 1491 1491 1491 1490 1490 1490 1490 1490
1486 1486 1486 1486 1486 1486 1486 1486 1486 1486 1486 1486 1486 1486 1486 1486 1487 1487 1487 1487 1487 1488 1488 1488 1488 1489 1489 1489 1490 1490 1490 1491 1491 1491 1491 1491 1491 1491 1491 1491 1490 1490 1490 1490 1490 1491 1491 1491 1490 1490 1490 1491 1491 1491 1491 1491 1491 1491 1491 1491 1491 1491 1491 1490 1490 1490 1490 1490 1490
1485 1485 1485 1485 1485 1485 1485 1485 1485 1485 1485 1485 1485 1485 1485 1485 1486 1486 1486 1486 1487 1487 1487 1488 1488 1488 1488 1489 1489 1489 1490 1490 1490 1490 1490 1490 1490 1490 1490 1490 1490 1490 1490 1490 1490 1490 1490 1490 1490 1490 1490 1491 1491 1491 1491 1491 1491 1491 1491 1491 1491 1490 1490 1490 1490 1490 1490 1490 1490
1484 1484 1484 1484 1484 1484 1484 1484 1484 1484 1484 1484 1484 1484 1484 1485 1485 1485 1485 1486 1486 1486 1487 1487 1487 1488 1488 1488 1489 1489 1489 1489 1490 1490 1490 1490 1489 1489 1489 1489 1489 1489 1489 1489 1489 1490 1490 1490 1490 1491 1491 1491 1491 1491 1491 1491 1491 1491 1490 1490 1490 1490 1490 1490 1490 1490 1490 1490 1490
1483 1483 1483 1483 1483 1483 1483 1484 1484 1484 1484 1484 1484 1484 1484 1484 1484 1484 1485 1485 1486 1486 1486 1487 1487 1487 1488 1488 1488 1488 1489 1489 1489 1489 1489 1489 1489 1489 1489 1489 1489 1489 1489 1489 1490 1490 1490 1491 1491 1491 1491 1491 1491 1491 1490 1490 1490 1490 1490 1490 1490 1490 1490 1490 1490 1490 1490 1490 1489
1483 1483 1483 1483 1483 1483 1483 1483 1483 1483 1483 1484 1483 1484 1484 1484 1484 1484 1484 1485 1485 1486 1486 1486 1487 1487 1488 1488 1488 1488 1488 1488 1489 1489 1489 1489 1489 1489 1489 1489 1489 1489 1489 1490 1490 1490 1491 1491 1491 1491 1491 1491 1490 1490 1490 1490 1490 1490 1490 1490 1490 1490 1490 1490 1490 1490 1490 1489 1489
1482 1482 1482 1482 1483 1483 1483 1483 1483 1483 1483 1483 1483 1483 1483 1484 1484 1484 1484 1485 1485 1486 1486 1486 1487 1487 1487 1488 1488 1488 1488 1488 1488 1488 1489 1489 1489 1489 1489 1489 1489 1489 1490 1490 1491 1491 1491 1491 1491 1491 1491 1491 1490 1490 1491 1491 1491 1491 1491 1491 1490 1490 1490 1490 1490 1489 1489 1489 1489
1482 1482 1482 1482 1482 1483 1483 1483 1483 1483 1483 1483 1483 1483 1483 1483 1484 1484 1484 1485 1485 1485 1486 1486 1486 1487 1487 1487 1488 1488 1488 1488 1488 1488 1488 1489 1489 1489 1489 1489 1490 1490 1490 1491 1491 1491 1491 1490 1490 1490 1490 1491 1491 1491 1491 1491 1491 1491 1491 1491 1490 1490 1490 1490 1489 1489 1489 1488 1488
1481 1481 1482 1482 1482 1482 1482 1483 1483 1483 1483 1483 1483 1483 1483 1483 1484 1484 1484 1485 1485 1485 1486 1486 1486 1487 1487 1487 1487 1488 1488 1488 1488 1488 1488 1489 1489 1489 1489 1490 1490 1490 1491 1491 1490 1490 1490 1490 1490 1491 1491 1491 1491 1491 1491 1491 1491 1491 1491 1490 1490 1490 1490 1489 1489 1489 1488 1488 1488
1481 1481 1481 1482 1482 1482 1482 1483 1483 1483 1483 1483 1483 1483 1483 1483 1484 1484 1484 1485 1485 1485 1486 1486 1486 1486 1487 1487 1487 1488 1488 1488 1488 1488 1489 1489 1489 1490 1490 1490 1490 1490 1490 1490 1490 1490 1490 1491 1491 1491 1491 1491 1491 1491 1491 1491 1491 1491 1490 1490 1490 1489 1489 1489 1488 1488 1488 1488 1487
1480 1481 1481 1481 1482 1482 1482 1483 1483 1483 1483 1483 1483 1483 1483 1483 1484 1484 1484 1485 1485 1485 1486 1486 1486 1487 1487 1487 1488 1488 1488 1488 1488 1489 1489 1489 1490 1490 1490 1490 1490 1490 1490 1490 1490 1491 1491 1491 1491 1491 1492 1492 1491 1491 1491 1491 1491 1490 1490 1490 1489 1489 1489 1488 1488 1488 1487 1487 1487
1480 1481 1481 1481 1482 1482 1482 1483 1483 1483 1483 1483 1483 1483 1483 1484 1484 1484 1485 1485 1485 1486 1486 1486 1486 1487 1487 1487 1488 1488 1488 1488 1489 1489 1490 1490 1490 1490 1490 1490 1490 1490 1490 1491 1491 1491 1491 1492 1492 1492 1492 1492 1491 1491 1491 1490 1490 1490 1489 1489 1489 1488 1488 1488 1488 1487 1487 1486 1486
1480 1481 1481 1481 1482 1482 1482 1483 1483 1483 1483 1483 1483 1483 1483 1484 1484 1485 1485 1485 1485 1486 1486 1486 1487 1487 1487 1488 1488 1488 1488 1489 1489 1490 1490 1490 1490 1490 1490 1490 1490 1491 1491 1491 1492 1492 1492 1492 1492 1492 1491 1491 1491 1491 1490 1490 1490 1489 1489 1489 1488 1488 1488 1488 1487 1487 1486 1486 1485
1480 1480 1481 1481 1482 1482 1482 1483 1483 1483 1483 1483 1483 1483 1484 1484 1484 1485 1485 1485 1486 1486 1486 1487 1487 1487 1488 1488 1488 1489 1489 1490 1490 1490 1490 1490 1490 1490 1490 1491 1491 1491 1491 1492 1492 1492 1492 1492 1491 1491 1491 1491 1490 1490 1490 1489 1489 1489 1489 1488 1488 1488 1488 1487 1487 1486 1486 1486 1485
1480 1480 1481 1481 1481 1482 1482 1482 1483 1483 1483 1483 1483 1484 1484 1484 1485 1485 1485 1486 1486 1486 1487 1487 1487 1488 1488 1488 1489 1489 1490 1490 1491 1491 1491 1491 1491 1491 1491 1491 1491 1492 1492 1492 1492 1492 1491 1491 1491 1491 1490 1490 1490 1489 1489 1489 1489 1489 1488 1488 1488 1488 1487 1487 1486 1486 1485 1485 1485
1480 1480 1480 1481 1481 1482 1482 1482 1483 1483 1483 1483 1484 1484 1484 1485 1485 1485 1485 1486 1486 1487 1487 1488 1488 1488 1488 1489 1489 1490 1490 1491 1491 1491 1491 1491 1491 1491 1491 1491 1491 1492 1492 1491 1491 1491 1491 1491 1490 1490 1490 1490 1489 1489 1489 1489 1489 1488 1488 1488 1488 1487 1487 1486 1486 1485 1485 1485 1484
1480 1480 1480 1481 1481 1481 1482 1482 1482 1483 1483 1483 1484 1484 1484 1485 1485 1486 1486 1486 1487 1487 1487 1488 1488 1488 1489 1489 1490 1490 1490 1491 1491 1491 1491 1491 1491 1491 1491 1491 1491 1491 1491 1491 1491 1491 1490 1490 1490 1490 1490 1490 1489 1489 1489 1489 1488 1488 1488 1488 1487 1487 1487 1486 1486 1485 1485 1484 1484
1479 1480 1480 1480 1481 1481 1481 1482 1482 1483 1483 1483 1484 1484 1485 1485 1486 1486 1486 1487 1487 1487 1488 1488 1489 1489 1489 1490 1490 1490 1491 1491 1491 1491 1491 1491 1491 1491 1491 1491 1491 1491 1491 1491 1491 1490 1490 1490 1490 1490 1490 1489 1489 1489 1489 1488 1488 1488 1488 1487 1487 1487 1486 1486 1485 1485 1484 1484 1483